Location: Bosdarros
(43.2167°N, 0.3667°W)
Time: 02:44:19
(UTC+00:00)

CZ-2C R/B - Pass Details

Date: 22 April 2021
Orbit: 639 x 705 km, 98.3° (Epoch: 15 May)

Event Time Altitude Azimuth Distance (km) Brightness Sun altitude
Rises 20:19:31 0° 21° (NNE) 2,957 7.2 -15.0°
Reaches altitude 10° 20:21:52 10° 29° (NNE) 2,040 6.3 -15.4°
Maximum altitude 20:26:01 39° 98° (E) 965 4.1 -16.0°
Enters shadow 20:27:42 28° 144° (SE) 1,208 4.5 -16.2°
